COSMOS 2251 DEB, 34021

Orbit data source: Space-Track

COSMOS 2251 DEB, 34021 is space debris in LEO originally from a launch on Wed, 16 Jun 1993 UTC launched from the Plesetsk Missile And Space Complex (PKMTR). The debris from Iridium 33, an American commercial communications satellite, has been tracked extensively since its accidental collision with the defunct Russian satellite Cosmos 2251 in 2009. This event, occurring at high speed in low Earth orbit (LEO), generated thousands of pieces of space debris, significantly increasing the risk of further collisions. The Iridium 33 debris cloud has impacted space traffic management and orbital debris mitigation strategies, making it a subject of ongoing study in space situational awareness.

Loading next visibility...
Identifier
34021, 1993-036HG
Orbit
LEO
Country
Flag of CISCIS
Related business
Manufacturer
Unknown
Mission
Spacecraft
Bus & Motor
Unknown
Mass
Unknown
Launch date (UTC)
1993-06-16 (32 years ago)
Launch vehicle
Unknown
Launch site
Plesetsk Missile And Space Complex (PKMTR)
Object type
Payload
Rocket body
Debris
Shape & HBR
Unknown shape, 0.2 m
Radar Cross Section
Small (<0.1 m²)

Expand to show TLE details & history
Last TLE update: 5 hours ago

TLE from 5 hours ago
0 COSMOS 2251 DEB
1 34021U 93036HG  25299.83757156  .00002443  00000-0  63979-3 0  9990
2 34021  74.0375 217.8712 0019473   8.7008  48.3865 14.49725698879501
Epoch: 2025-10-26T20:06Z
TLE epoch observation values (Epoch: 2025-10-26T20:06:06.182Z)
Latitude
54.07372°
Longitude
-95.98327°
Altitude
725.918 km
Speed
7.503 km/s
True Right ascension
16h 03m 57s
True Declination
53° 54' 34"
Sunlit
Object was in daylight at epoch
Visualization orbit readout
Latitude
Unknown
Longitude
Unknown
Altitude
Unknown
Speed
Unknown
Apparent Right ascension
Unknown
Apparent Declination
Unknown
Sunlit
N/A
Visualization observer readout
Local Sidereal Time
20:26:19
Azimuth
Unknown
Elevation
Unknown
Doppler factor
Unknown
Orbital elements
Apogee altitude
737.984 km
Perigee altitude
710.323 km
Semi-major axis
7,102.29 km
Eccentricity
0.00195
Inclination
74.0375°
RAAN
217.8712°
Arg. of periapsis
8.7008°
True anomaly
48.5536°
Mean anomaly
48.3865°
Eccentric anomaly
48.47002°
Mean motion
3.62615 °/min
Orbital period
99.28 mins
BSTAR
0.00063979
Loading maneuver chart data...
Computing Atmospheric mass density...
Loading historical data...
Loading historical data...
Loading historical data...
Loading historical data...
Loading historical data...
Loading historical data...
Loading historical data...

Documentation

Showing up to 5 results
|